Tracking 28126 objects as of 1-Oct-2023
HD Live streaming from Space Station
objects crossing your sky now

STARLINK-5283

Track STARLINK-5283 now!
10-day predictions
STARLINK-5283 is classified as:


NORAD ID: 55396
Int'l Code: 2023-014F
Perigee: 577.7 km
Apogee: 580.7 km
Inclination: 70.0 °
Period: 96.1 minutes
Semi major axis: 6950 km
RCS: Unknown
Launch date: January 31, 2023
Source: United States (US)
Launch site: AIR FORCE WESTERN TEST RANGE (AFWTR)
Your satellite tracking list
Your tracking list is empty




NASA's NSSDC Master Catalog

Two Line Element Set (TLE):
1 55396U 23014F   23273.40936238  .00000236  00000-0  27572-4 0  9998
2 55396  70.0021 151.5639 0002153 291.4199  68.6730 14.98324597 37615
Source of the keplerian elements: AFSPC